Regional Weather Roundup
Issued by NWS Memphis, TN

Home | Current Version | Previous Version | Text Only | Print | Product List | Glossary On
Versions: 1 2 3 4 5 6 7 8 9 10 11 12 13 14 15 16 17 18 19 20 21 22 23 24 25 26 27 28 29 30 31 32 33 34 35 36 37 38 39 40 41 42 43 44 45 46 47 48 49 50
000
ASUS44 KMEG 260610
RWRMEG
MEMPHIS CWA HOURLY WEATHER ROUNDUP
NATIONAL WEATHER SERVICE MEMPHIS TN
1200 AM CST FRI DEC 26 2014

...WEST TENNESSEE...

CITY           SKY/WX    TMP DP  RH WIND       PRES   REMARKS
MEMPHIS INTL   PTCLDY    43  34  70 SE8       30.15F
6HR MIN TEMP:  42; 6HR MAX TEMP:  49;

NWS MEMPHIS      N/A     40 N/A N/A MISG        N/A
JACKSON        PTCLDY    42  34  73 S8        30.18R
6HR MIN TEMP:  42; 6HR MAX TEMP:  46;

LEXINGTON      CLEAR     37  34  87 SE3       30.17S
SAVANNAH       CLEAR     39  36  87 S3        30.19S
DYERSBURG      CLEAR     41  27  56 S5        30.17S
6HR MIN TEMP:  41; 6HR MAX TEMP:  46;

UNION CITY     CLEAR     37  34  87 S12       30.14S WCI  30
PARIS          CLEAR     36  32  87 S5        30.17S WCI  32
HUNTINGDON     PTCLDY    34  32  92 CALM      30.18S


...EASTERN ARKANSAS...

CITY           SKY/WX    TMP DP  RH WIND       PRES   REMARKS
JONESBORO      CLEAR     40  36  86 S12       30.11S WCI  33
6HR MIN TEMP:  39; 6HR MAX TEMP:  47;

WEST MEMPHIS   PTCLDY    40  36  86 S9        30.13F WCI  34
6HR MIN TEMP:  35; 6HR MAX TEMP:  43;

BATESVILLE     CLEAR     46  36  66 S9G20     30.07S
6HR MIN TEMP:  46; 6HR MAX TEMP:  48;

NEWPORT        PTCLDY    41  37  85 S8        30.11R
6HR MIN TEMP:  41; 6HR MAX TEMP:  48;

WALNUT RIDGE   CLEAR     43  34  70 S15       30.10R
6HR MIN TEMP:  41; 6HR MAX TEMP:  46;

BLYTHEVILLE    PTCLDY    41  35  79 S10       30.14S
6HR MIN TEMP:  40; 6HR MAX TEMP:  46;

SEARCY         CLEAR     42  36  79 S7        30.11S
6HR MIN TEMP:  41; 6HR MAX TEMP:  48;

STUTTGART      CLEAR     43  36  75 SE10      30.12S
6HR MIN TEMP:  43; 6HR MAX TEMP:  50;

PINE BLUFF     CLEAR     44  35  70 S10       30.12S
6HR MIN TEMP:  44; 6HR MAX TEMP:  49;

MONTICELLO     PTCLDY    41  35  79 S6        30.14S
6HR MIN TEMP:  40; 6HR MAX TEMP:  50;



...NORTH MISSISSIPPI...

CITY           SKY/WX    TMP DP  RH WIND       PRES   REMARKS
TUPELO         PTCLDY    37  33  85 MISG      30.19F
6HR MIN TEMP:  37; 6HR MAX TEMP:  46;

OXFORD         PTCLDY    39  34  81 SE9       30.19S WCI  33
OLIVE BRANCH   CLEAR     37  37 100 CALM      30.16S
TUNICA         PTCLDY    39  36  87 S9        30.17R WCI  33
CLARKSDALE     PTCLDY    41  37  87 SE7       30.17R
CORINTH        PTCLDY    37  34  87 S7        30.18S WCI  32
GRENADA        MOCLDY    32  32 100 CALM      30.20R
GREENWOOD      MOCLDY    41  35  79 S3        30.19R
6HR MIN TEMP:  40; 6HR MAX TEMP:  48;

COLUMBUS       CLEAR     34  32  92 NW2       30.21S
6HR MIN TEMP:  34; 6HR MAX TEMP:  40;

STARKVILLE     FAIR      34  34 100 CALM      30.20S
GOLDEN TRIANGL PTCLDY    41  36  81 CALM      30.19S
6HR MIN TEMP:  39; 6HR MAX TEMP:  46;



...SOUTHEAST MISSOURI...

CITY           SKY/WX    TMP DP  RH WIND       PRES   REMARKS
WEST PLAINS    MOCLDY    40  34  79 SE7       30.02R
6HR MIN TEMP:  40; 6HR MAX TEMP:  46;

POPLAR BLUFF   CLEAR     42  34  73 S10       30.09R
6HR MIN TEMP:  42; 6HR MAX TEMP:  46;

CAPE GIRARDEAU MOCLDY    41  35  79 S13       30.11S
6HR MIN TEMP:  40; 6HR MAX TEMP:  43;



...NORTHWEST ALABAMA...

CITY           SKY/WX    TMP DP  RH WIND       PRES   REMARKS
MUSCLE SHOALS  PTCLDY    34  32  92 E3        30.22S
6HR MIN TEMP:  34; 6HR MAX TEMP:  44;



...MIDDLE TENNESSEE...

CITY           SKY/WX    TMP DP  RH WIND       PRES   REMARKS
NASHVILLE      CLEAR     36  32  85 CALM      30.22R
6HR MIN TEMP:  35; 6HR MAX TEMP:  43;

CLARKSVILLE    CLEAR     37  33  85 CALM      30.19S
6HR MIN TEMP:  35; 6HR MAX TEMP:  44;

COLUMBIA       CLEAR     37  37 100 S5        30.19R WCI  34


...WESTERN KENTUCKY...

CITY           SKY/WX    TMP DP  RH WIND       PRES   REMARKS
PADUCAH        PTCLDY    43  34  70 VRB7      30.13S
6HR MIN TEMP:  39; 6HR MAX TEMP:  44;

FORT CAMPBELL  CLEAR     37  33  85 SE6       30.18S WCI  32
6HR MIN TEMP:  37; 6HR MAX TEMP:  45;



...CENTRAL ARKANSAS...

CITY           SKY/WX    TMP DP  RH WIND       PRES   REMARKS
LITTLE ROCK    PTCLDY    47  35  63 S10       30.10S
6HR MIN TEMP:  45; 6HR MAX TEMP:  50;



SKY/WX REPORTED AS FAIR MEANS FEW OR NO CLOUDS BELOW
12 THOUSAND FEET.



USA.gov is the U.S. government's official web portal to all federal, state and local government web resources and services.